Regional Weather Roundup
Issued by NWS Jackson, KY

Home | Current Version | Previous Version | Graphics & Text | Print | Product List | Glossary On
Versions: 1 2 3 4 5 6 7 8 9 10 11 12 13 14 15 16 17 18 19 20 21 22 23 24 25 26 27 28 29 30 31 32 33 34 35 36 37 38 39 40 41 42 43 44 45 46 47 48 49 50
000
ASUS43 KJKL 031310
RWRJKL

EAST KENTUCKY HOURLY WEATHER ROUNDUP
NATIONAL WEATHER SERVICE JACKSON KY
900 AM EDT FRI JUL 03 2015

NOTE: "FAIR" INDICATES FEW OR NO CLOUDS BELOW 12,000 FEET WITH
NO SIGNIFICANT WEATHER AND/OR OBSTRUCTIONS TO VISIBILITY.

* THESE REPORTS ARE NOT UNDER NWS QUALITY CONTROL AND MAY NOT
  REPORT WEATHER SUCH AS PRECIPITATION AND FOG.

KYZ079-080-083-085-087-088-110-112-115-119-120-031400
...EASTERN KENTUCKY...

CITY           SKY/WX    TMP DP  RH WIND       PRES   REMARKS
JACKSON        CLOUDY    69  67  93 CALM      29.90S
LONDON         CLOUDY    71  66  84 CALM      29.89S THUNDER
SOMERSET*      CLOUDY    68  68 100 S3        29.89S FOG
MONTICELLO*    CLOUDY    72  72 100 CALM      29.90S
MIDDLESBORO*   CLOUDY    71  69  92 S5        29.92S
HARLAN APT*      N/A     70  70 100 MISG      29.92S
HAZARD APT*    CLOUDY    70  70 100 CALM      29.89F
BLACK MTN*       N/A     63  63 100 S5          N/A
PIKEVILLE APT* CLOUDY    68  68 100 CALM      29.91F
BIG SANDY*     CLOUDY    71  69  95 SE5       29.91S
MOREHEAD APT*  CLOUDY    68  66  94 VRB5      29.91S
$$

KYZ035-036-041-042-044-050-067-078-099-031400
...CENTRAL KENTUCKY...

CITY           SKY/WX    TMP DP  RH WIND       PRES   REMARKS
MT STERLING*   CLOUDY    68  68 100 E5        29.91R FOG
FLEMING/MASON* CLOUDY    66  66 100 CALM      29.90S FOG
DANVILLE*      CLOUDY    70  70 100 S3        29.89S
RICHMOND*      CLOUDY    70  68  94 CALM      29.88S
LEXINGTON      CLOUDY    70  67  90 E3        29.88S
FRANKFORT      CLOUDY    71  67  87 E6        29.86S
$$

KYZ091>093-OHZ055-061-077-WVZ005-015-034-035-042-031400
...SOUTHERN OHIO/WEST VIRGINIA...

CITY           SKY/WX    TMP DP  RH WIND       PRES   REMARKS
COVINGTON      CLOUDY    68  64  87 NE10      29.89F
COLUMBUS       CLOUDY    66  57  72 E8        29.94S
DAYTON         CLOUDY    66  58  75 E8        29.94F
WILMINGTON     PTSUNNY   65  58  78 E9        29.91F
HUNTINGTON     CLOUDY    67  67 100 SE6       29.89F FOG
CHARLESTON     LGT RAIN  67  64  90 E3        29.91S FOG
PINEVILLE*     CLOUDY    67  67 100 MISG      30.01R
BECKLEY        LGT RAIN  65  62  90 SE7       30.00S FOG
BLUEFIELD      LGT RAIN  67  62  84 S8        30.01S
$$

VAZ002-007-008-TNZ017-027-036-066-071-031400
...SOUTHWEST VIRGINIA/EAST TENNESSEE...

CITY           SKY/WX    TMP DP  RH WIND       PRES   REMARKS
WISE*          CLOUDY    70  70 100 S3        29.98F
JONESVILLE*      N/A    N/A N/A N/A MISG        N/A
ABINGDON*      CLOUDY    71  69  95 CALM      29.97F
BRISTOL        CLOUDY    71  68  90 E5        29.93F
KNOXVILLE      CLOUDY    70  66  88 W3        29.91R
OAK RIDGE      CLOUDY    71  69  93 CALM      29.93R
CROSSVILLE     LGT RAIN  72  68  87 W10G18    29.95S
NASHVILLE      PTSUNNY   74  70  87 SW5       29.88S
$$

...KEY TO REMARKS...
VSB - VISIBILITY IN MILES
WCI - WIND CHILL INDEX
HX  - HEAT INDEX

$$



USA.gov is the U.S. government's official web portal to all federal, state and local government web resources and services.